Time,TemperatureF,DewpointF,PressureIn,WindDirection,WindDirectionDegrees,WindSpeedMPH,WindSpeedGustMPH,Humidity,HourlyPrecipIn,Conditions,Clouds,dailyrainin,SoftwareType,DateUTC
2013-04-17 00:01:00,39.4,38.0,30.21,NE,54,0.0,0.0,94,0.00,,,0.00,weatherlink.com 1.10,2013-04-17 07:01:00,
2013-04-17 00:16:00,41.3,40.0,30.21,ESE,113,0.0,1.0,96,0.00,,,0.00,weatherlink.com 1.10,2013-04-17 07:16:00,
2013-04-17 00:31:00,42.2,41.0,30.21,ESE,115,0.0,0.0,95,0.00,,,0.00,weatherlink.com 1.10,2013-04-17 07:31:00,
2013-04-17 00:46:00,41.5,40.0,30.21,NE,56,1.0,2.0,94,0.00,,,0.00,weatherlink.com 1.10,2013-04-17 07:46:00,
2013-04-17 01:01:00,40.7,39.0,30.22,East,84,0.0,1.0,94,0.00,,,0.00,weatherlink.com 1.10,2013-04-17 08:01:00,
2013-04-17 01:16:00,39.4,38.0,30.22,NE,49,1.0,2.0,94,0.00,,,0.00,weatherlink.com 1.10,2013-04-17 08:16:00,
2013-04-17 01:32:00,38.6,37.0,30.23,NE,52,0.0,1.0,94,0.00,,,0.00,weatherlink.com 1.10,2013-04-17 08:32:00,
2013-04-17 01:47:00,37.9,37.0,30.23,NE,52,1.0,3.0,96,0.00,,,0.00,weatherlink.com 1.10,2013-04-17 08:47:00,
2013-04-17 02:02:00,39.3,39.0,30.23,NE,50,0.0,2.0,97,0.00,,,0.00,weatherlink.com 1.10,2013-04-17 09:02:00,
2013-04-17 02:17:00,39.6,39.0,30.23,NE,53,2.0,3.0,96,0.00,,,0.00,weatherlink.com 1.10,2013-04-17 09:17:00,
2013-04-17 02:32:00,40.6,40.0,30.23,NNW,345,0.0,2.0,97,0.00,,,0.00,weatherlink.com 1.10,2013-04-17 09:32:00,
2013-04-17 02:47:00,39.9,39.0,30.23,NE,37,2.0,3.0,96,0.00,,,0.00,weatherlink.com 1.10,2013-04-17 09:47:00,
2013-04-17 03:02:00,40.2,39.0,30.23,SE,146,0.0,0.0,97,0.00,,,0.00,weatherlink.com 1.10,2013-04-17 10:02:00,
2013-04-17 03:17:00,38.9,38.0,30.23,NE,41,0.0,2.0,96,0.00,,,0.00,weatherlink.com 1.10,2013-04-17 10:17:00,
2013-04-17 03:32:00,38.1,37.0,30.23,NE,41,0.0,0.0,96,0.00,,,0.00,weatherlink.com 1.10,2013-04-17 10:32:00,
2013-04-17 03:47:00,38.9,38.0,30.23,ESE,117,0.0,0.0,97,0.00,,,0.00,weatherlink.com 1.10,2013-04-17 10:47:00,
2013-04-17 04:02:00,38.1,37.0,30.24,NE,56,0.0,0.0,97,0.00,,,0.00,weatherlink.com 1.10,2013-04-17 11:02:00,
2013-04-17 04:17:00,37.6,37.0,30.24,NE,47,0.0,0.0,97,0.00,,,0.00,weatherlink.com 1.10,2013-04-17 11:17:00,
2013-04-17 04:32:00,36.9,36.0,30.24,NE,46,0.0,0.0,97,0.00,,,0.00,weatherlink.com 1.10,2013-04-17 11:32:00,
2013-04-17 04:47:00,36.5,36.0,30.25,NE,46,0.0,0.0,97,0.00,,,0.00,weatherlink.com 1.10,2013-04-17 11:47:00,
2013-04-17 05:02:00,35.8,35.0,30.25,NE,49,1.0,2.0,96,0.00,,,0.00,weatherlink.com 1.10,2013-04-17 12:02:00,
2013-04-17 05:17:00,35.6,35.0,30.25,NE,46,0.0,2.0,96,0.00,,,0.00,weatherlink.com 1.10,2013-04-17 12:17:00,
2013-04-17 05:32:00,35.5,35.0,30.26,NE,49,0.0,0.0,97,0.00,,,0.00,weatherlink.com 1.10,2013-04-17 12:32:00,
2013-04-17 05:47:00,35.5,35.0,30.26,NE,49,1.0,3.0,97,0.00,,,0.00,weatherlink.com 1.10,2013-04-17 12:47:00,
2013-04-17 06:02:00,35.6,35.0,30.27,NE,53,1.0,2.0,97,0.00,,,0.00,weatherlink.com 1.10,2013-04-17 13:02:00,
2013-04-17 06:17:00,35.1,34.0,30.28,NE,49,0.0,2.0,97,0.00,,,0.00,weatherlink.com 1.10,2013-04-17 13:17:00,
2013-04-17 06:32:00,35.4,35.0,30.28,NE,53,0.0,0.0,97,0.00,,,0.00,weatherlink.com 1.10,2013-04-17 13:32:00,
2013-04-17 06:47:00,35.8,35.0,30.28,NE,53,0.0,0.0,97,0.00,,,0.00,weatherlink.com 1.10,2013-04-17 13:47:00,
2013-04-17 07:02:00,35.7,35.0,30.28,NE,51,0.0,0.0,97,0.00,,,0.00,weatherlink.com 1.10,2013-04-17 14:02:00,
2013-04-17 07:17:00,37.1,37.0,30.29,NE,51,0.0,0.0,98,0.00,,,0.00,weatherlink.com 1.10,2013-04-17 14:17:00,
2013-04-17 07:32:00,39.8,39.0,30.30,NE,55,0.0,0.0,98,0.00,,,0.00,weatherlink.com 1.10,2013-04-17 14:32:00,
2013-04-17 07:47:00,42.0,42.0,30.31,SSW,201,0.0,0.0,98,0.00,,,0.00,weatherlink.com 1.10,2013-04-17 14:47:00,
2013-04-17 08:02:00,43.3,43.0,30.31,SSW,201,0.0,0.0,97,0.00,,,0.00,weatherlink.com 1.10,2013-04-17 15:02:00,
2013-04-17 08:18:00,44.2,43.0,30.31,SE,142,0.0,0.0,95,0.00,,,0.00,weatherlink.com 1.10,2013-04-17 15:18:00,
2013-04-17 08:33:00,44.5,43.0,30.32,SE,141,0.0,0.0,95,0.00,,,0.00,weatherlink.com 1.10,2013-04-17 15:33:00,
2013-04-17 08:48:00,46.5,45.0,30.32,SE,145,0.0,0.0,95,0.00,,,0.00,weatherlink.com 1.10,2013-04-17 15:48:00,
2013-04-17 09:03:00,48.7,47.0,30.32,SE,136,0.0,2.0,93,0.00,,,0.00,weatherlink.com 1.10,2013-04-17 16:03:00,
2013-04-17 09:18:00,51.5,49.0,30.32,SW,218,0.0,0.0,90,0.00,,,0.00,weatherlink.com 1.10,2013-04-17 16:18:00,
2013-04-17 09:33:00,52.0,47.0,30.31,WNW,301,2.0,3.0,82,0.00,,,0.00,weatherlink.com 1.10,2013-04-17 16:33:00,
2013-04-17 09:48:00,54.3,44.0,30.31,NW,312,5.0,7.0,68,0.00,,,0.00,weatherlink.com 1.10,2013-04-17 16:48:00,
2013-04-17 10:03:00,56.7,40.0,30.31,West,281,5.0,10.0,53,0.00,,,0.00,weatherlink.com 1.10,2013-04-17 17:03:00,
2013-04-17 10:18:00,58.9,40.0,30.31,NW,309,4.0,10.0,49,0.00,,,0.00,weatherlink.com 1.10,2013-04-17 17:18:00,
2013-04-17 10:33:00,59.2,41.0,30.31,WNW,293,6.0,11.0,52,0.00,,,0.00,weatherlink.com 1.10,2013-04-17 17:33:00,
2013-04-17 10:48:00,61.6,36.0,30.31,NNW,347,8.0,12.0,38,0.00,,,0.00,weatherlink.com 1.10,2013-04-17 17:48:00,
2013-04-17 11:03:00,62.6,36.0,30.31,NNE,16,6.0,9.0,38,0.00,,,0.00,weatherlink.com 1.10,2013-04-17 18:03:00,
2013-04-17 11:18:00,63.3,36.0,30.31,NNW,347,3.0,14.0,37,0.00,,,0.00,weatherlink.com 1.10,2013-04-17 18:18:00,
2013-04-17 11:33:00,62.3,39.0,30.31,WNW,302,6.0,10.0,42,0.00,,,0.00,weatherlink.com 1.10,2013-04-17 18:33:00,
2013-04-17 11:48:00,60.6,44.0,30.30,WNW,293,10.0,15.0,55,0.00,,,0.00,weatherlink.com 1.10,2013-04-17 18:48:00,
2013-04-17 12:03:00,59.5,44.0,30.30,WNW,295,10.0,16.0,57,0.00,,,0.00,weatherlink.com 1.10,2013-04-17 19:03:00,
2013-04-17 12:18:00,59.5,44.0,30.30,West,278,11.0,15.0,56,0.00,,,0.00,weatherlink.com 1.10,2013-04-17 19:18:00,
2013-04-17 12:33:00,59.6,43.0,30.30,West,275,11.0,18.0,55,0.00,,,0.00,weatherlink.com 1.10,2013-04-17 19:33:00,
2013-04-17 12:48:00,59.1,43.0,30.30,WNW,301,7.0,17.0,56,0.00,,,0.00,weatherlink.com 1.10,2013-04-17 19:48:00,
2013-04-17 13:03:00,59.5,44.0,30.29,WNW,297,10.0,15.0,56,0.00,,,0.00,weatherlink.com 1.10,2013-04-17 20:03:00,
2013-04-17 13:18:00,59.7,42.0,30.29,WNW,285,10.0,17.0,53,0.00,,,0.00,weatherlink.com 1.10,2013-04-17 20:18:00,
2013-04-17 13:34:00,60.7,44.0,30.29,West,281,9.0,16.0,54,0.00,,,0.00,weatherlink.com 1.10,2013-04-17 20:34:00,
2013-04-17 13:49:00,59.6,45.0,30.29,NW,304,10.0,16.0,60,0.00,,,0.00,weatherlink.com 1.10,2013-04-17 20:49:00,
2013-04-17 14:04:00,59.0,45.0,30.28,WNW,297,10.0,16.0,61,0.00,,,0.00,weatherlink.com 1.10,2013-04-17 21:04:00,
2013-04-17 14:19:00,58.1,44.0,30.28,NW,309,8.0,20.0,60,0.00,,,0.00,weatherlink.com 1.10,2013-04-17 21:19:00,
2013-04-17 14:34:00,58.3,45.0,30.28,NW,310,14.0,19.0,61,0.00,,,0.00,weatherlink.com 1.10,2013-04-17 21:34:00,
2013-04-17 14:49:00,57.1,45.0,30.27,NW,304,11.0,18.0,64,0.00,,,0.00,weatherlink.com 1.10,2013-04-17 21:49:00,
2013-04-17 15:04:00,57.5,45.0,30.26,West,280,9.0,19.0,63,0.00,,,0.00,weatherlink.com 1.10,2013-04-17 22:04:00,
2013-04-17 15:19:00,57.4,46.0,30.26,WNW,290,11.0,17.0,67,0.00,,,0.00,weatherlink.com 1.10,2013-04-17 22:19:00,
2013-04-17 15:34:00,56.7,46.0,30.25,WNW,297,13.0,18.0,67,0.00,,,0.00,weatherlink.com 1.10,2013-04-17 22:34:00,
2013-04-17 15:49:00,57.4,46.0,30.25,West,281,10.0,16.0,66,0.00,,,0.00,weatherlink.com 1.10,2013-04-17 22:49:00,
2013-04-17 16:04:00,57.5,45.0,30.24,West,280,9.0,17.0,64,0.00,,,0.00,weatherlink.com 1.10,2013-04-17 23:04:00,
2013-04-17 16:19:00,57.5,46.0,30.23,NW,307,9.0,17.0,65,0.00,,,0.00,weatherlink.com 1.10,2013-04-17 23:19:00,
2013-04-17 16:34:00,57.4,46.0,30.23,WNW,288,11.0,17.0,67,0.00,,,0.00,weatherlink.com 1.10,2013-04-17 23:34:00,
2013-04-17 16:49:00,56.9,47.0,30.23,NW,311,5.0,21.0,69,0.00,,,0.00,weatherlink.com 1.10,2013-04-17 23:49:00,
2013-04-17 17:04:00,56.2,47.0,30.23,West,271,11.0,16.0,70,0.00,,,0.00,weatherlink.com 1.10,2013-04-18 00:04:00,
2013-04-17 17:19:00,56.1,47.0,30.22,West,271,8.0,15.0,72,0.00,,,0.00,weatherlink.com 1.10,2013-04-18 00:19:00,
2013-04-17 17:34:00,56.1,46.0,30.22,West,280,6.0,12.0,69,0.00,,,0.00,weatherlink.com 1.10,2013-04-18 00:34:00,
2013-04-17 17:49:00,56.6,46.0,30.22,WNW,301,7.0,13.0,68,0.00,,,0.00,weatherlink.com 1.10,2013-04-18 00:49:00,
2013-04-17 18:04:00,56.6,46.0,30.22,WNW,295,4.0,12.0,68,0.00,,,0.00,weatherlink.com 1.10,2013-04-18 01:04:00,
2013-04-17 18:19:00,56.1,46.0,30.22,WNW,291,8.0,12.0,70,0.00,,,0.00,weatherlink.com 1.10,2013-04-18 01:19:00,
2013-04-17 18:49:00,55.1,47.0,30.22,WNW,294,3.0,11.0,73,0.00,,,0.00,weatherlink.com 1.10,2013-04-18 01:49:00,
2013-04-17 19:04:00,54.2,46.0,30.22,NW,305,5.0,9.0,74,0.00,,,0.00,weatherlink.com 1.10,2013-04-18 02:04:00,
2013-04-17 19:19:00,53.4,47.0,30.23,NW,307,5.0,9.0,78,0.00,,,0.00,weatherlink.com 1.10,2013-04-18 02:19:00,
2013-04-17 19:34:00,52.3,46.0,30.23,NW,311,3.0,8.0,79,0.00,,,0.00,weatherlink.com 1.10,2013-04-18 02:34:00,
2013-04-17 19:49:00,51.0,45.0,30.23,WNW,301,4.0,5.0,80,0.00,,,0.00,weatherlink.com 1.10,2013-04-18 02:49:00,
2013-04-17 20:04:00,49.7,44.0,30.23,WNW,291,0.0,3.0,81,0.00,,,0.00,weatherlink.com 1.10,2013-04-18 03:04:00,
2013-04-17 20:19:00,48.4,43.0,30.24,NNE,30,0.0,2.0,82,0.00,,,0.00,weatherlink.com 1.10,2013-04-18 03:19:00,
2013-04-17 20:34:00,47.9,44.0,30.24,NNE,22,2.0,2.0,85,0.00,,,0.00,weatherlink.com 1.10,2013-04-18 03:34:00,
2013-04-17 20:49:00,47.1,43.0,30.25,NE,54,0.0,1.0,86,0.00,,,0.00,weatherlink.com 1.10,2013-04-18 03:49:00,
2013-04-17 21:04:00,46.7,43.0,30.25,North,356,1.0,3.0,88,0.00,,,0.00,weatherlink.com 1.10,2013-04-18 04:04:00,
2013-04-17 21:19:00,46.2,43.0,30.25,NE,39,0.0,3.0,88,0.00,,,0.00,weatherlink.com 1.10,2013-04-18 04:19:00,
2013-04-17 21:34:00,45.5,43.0,30.26,NE,51,1.0,2.0,89,0.00,,,0.00,weatherlink.com 1.10,2013-04-18 04:34:00,
2013-04-17 21:49:00,44.9,42.0,30.27,NE,47,2.0,3.0,90,0.00,,,0.00,weatherlink.com 1.10,2013-04-18 04:49:00,
2013-04-17 22:04:00,44.7,42.0,30.27,NE,35,0.0,3.0,91,0.00,,,0.00,weatherlink.com 1.10,2013-04-18 05:04:00,
2013-04-17 22:19:00,43.6,41.0,30.27,NE,41,0.0,0.0,91,0.00,,,0.00,weatherlink.com 1.10,2013-04-18 05:19:00,
2013-04-17 22:34:00,43.2,41.0,30.27,NE,46,0.0,0.0,92,0.00,,,0.00,weatherlink.com 1.10,2013-04-18 05:34:00,
2013-04-17 22:49:00,42.3,41.0,30.27,NE,50,0.0,0.0,93,0.00,,,0.00,weatherlink.com 1.10,2013-04-18 05:49:00,
2013-04-17 23:04:00,42.4,41.0,30.27,NE,49,0.0,0.0,93,0.00,,,0.00,weatherlink.com 1.10,2013-04-18 06:04:00,
2013-04-17 23:19:00,41.6,40.0,30.27,ENE,59,0.0,2.0,93,0.00,,,0.00,weatherlink.com 1.10,2013-04-18 06:19:00,
2013-04-17 23:34:00,40.9,39.0,30.27,NE,54,0.0,0.0,93,0.00,,,0.00,weatherlink.com 1.10,2013-04-18 06:34:00,
2013-04-17 23:49:00,40.7,39.0,30.27,NE,50,1.0,2.0,94,0.00,,,0.00,weatherlink.com 1.10,2013-04-18 06:49:00,